Location: Finkenwalde
(53.3770°N, 14.6418°E)
Time: 09:52:17
(UTC+00:00)

SJ-6B - Pass Details

Date: 05 February 2023
Orbit: 502 x 570 km, 97.5° (Epoch: 19 March)

Event Time Altitude Azimuth Distance (km) Brightness Sun altitude
Exits shadow 17:37:39 31° 78° (ENE) 992 3.5 -15.9°
Maximum altitude 17:38:05 32° 65° (ENE) 976 3.5 -16.0°
Drops below altitude 10° 17:41:40 10° 2° (N) 1,865 5.4 -16.5°
Sets 17:44:00 0° 353° (N) 2,776 6.5 -16.9°
